DW6399 Weather Reports


Display with metric or nautical units.
time (UTC)temp
F
wind
direction
speed
MPH
gust
MPH
rain 1hr
in
rain 24hr
in
rain mn
in
humidity
%
barometer
mb
20260905093603 52 325 3.0 5.0 0.00 0.10 0.10 96 992.6
20260905092703 51 345 4.0 10.0 0.00 0.10 0.10 96 992.7
20260905091803 51 330 6.0 10.0 0.00 0.10 0.10 97 992.6
20260905090903 51 343 4.0 9.0 0.00 0.10 0.10 96 992.6
20260905090003 51 335 3.0 9.0 0.00 0.10 0.10 96 992.6
20260905085404 51 333 3.0 5.0 0.00 0.10 0.10 96 992.5
20260905084503 50 353 2.0 6.0 0.00 0.10 0.10 96 992.4
20260905083603 50 337 4.0 11.0 0.00 0.10 0.10 96 992.4
20260905082703 50 338 5.0 11.0 0.00 0.10 0.10 96 992.3
20260905081804 50 331 4.0 7.0 0.00 0.10 0.10 96 992.3
20260905080903 50 328 5.0 9.0 0.01 0.10 0.10 96 992.3
20260905080025 50 317 3.0 5.0 0.02 0.10 0.10 96 992.3
20260905075403 50 322 3.0 5.0 0.02 0.10 0.10 96 992.3
20260905074503 49 327 3.0 5.0 0.03 0.10 0.10 96 992.3
20260905073603 49 328 4.0 6.0 0.03 0.10 0.10 96 992.2
20260905072703 48 332 3.0 5.0 0.04 0.10 0.10 96 992.2
20260905071824 48 353 2.0 4.0 0.06 0.10 0.10 96 992.2
20260905070903 48 344 2.0 4.0 0.07 0.09 0.09 96 992.1
20260905070004 48 331 2.0 4.0 0.07 0.08 0.09 96 992.1
20260905065403 48 330 2.0 4.0 0.07 0.08 0.08 96 992.1
20260905064503 47 330 2.0 5.0 0.06 0.07 0.07 96 992.1
20260905063624 48 340 2.0 4.0 0.06 0.07 0.07 96 992.1
20260905062724 47 340 2.0 5.0 0.05 0.06 0.06 96 992.0
20260905061803 47 334 4.0 6.0 0.04 0.04 0.04 96 991.9
20260905060903 47 325 5.0 8.0 0.02 0.02 0.02 96 991.8
20260905060004 48 329 4.0 6.0 0.01 0.01 0.01 96 991.8
20260905055403 48 332 3.0 6.0 0.01 0.01 0.01 96 991.8
20260905054503 47 338 1.0 4.0 0.01 0.01 0.01 96 991.8
20260905053603 46 321 2.0 4.0 0.01 0.01 0.01 96 991.8
20260905052703 46 321 3.0 5.0 0.01 0.01 0.01 96 991.8
20260905051803 46 321 3.0 5.0 0.00 0.00 0.00 96 991.8
20260905050903 46 321 2.0 4.0 0.00 0.00 0.00 96 991.8
20260905050004 46 321 2.0 4.0 0.00 0.00 0.00 96 991.7
20260905045403 45 321 2.0 3.0 0.00 0.00 0.00 96 991.7
20260905044503 45 321 1.0 3.0 0.00 0.00 0.00 96 991.7
20260905043603 44 321 1.0 3.0 0.00 0.00 0.00 96 991.7
20260905042703 43 321 1.0 2.0 0.00 0.00 0.00 96 991.8
20260905041803 43 0 0.0 0.0 0.00 0.00 0.00 96 991.8
20260905040903 43 0 0.0 0.0 0.00 0.00 0.00 96 991.8
20260905040003 43 321 0.0 1.0 0.00 0.00 0.00 96 991.8
20260905035403 43 321 0.0 1.0 0.00 0.00 0.00 96 991.8
20260905034524 42 0 0.0 0.0 0.00 0.00 0.00 96 991.8
20260905033603 42 321 0.0 2.0 0.00 0.00 0.00 96 991.8
20260905032703 42 321 0.0 1.0 0.00 0.00 0.00 96 991.8
20260905031803 42 321 0.0 1.0 0.00 0.00 0.00 96 991.8
20260905030903 42 0 0.0 0.0 0.00 0.00 0.00 96 991.7
20260905030003 42 321 0.0 1.0 0.00 0.00 0.00 96 991.7
20260905025403 41 321 0.0 1.0 0.00 0.00 0.00 96 991.7
20260905024503 41 321 0.0 1.0 0.00 0.00 0.00 96 991.6
20260905023603 41 321 0.0 2.0 0.00 0.00 0.00 95 991.7
20260905022703 41 321 1.0 3.0 0.00 0.00 0.00 95 991.7
20260905021803 40 321 0.0 2.0 0.00 0.00 0.00 95 991.7
20260905020903 41 0 0.0 0.0 0.00 0.00 0.00 95 991.6
20260905020024 41 0 0.0 0.0 0.00 0.00 0.00 95 991.7
20260905015403 41 0 0.0 0.0 0.00 0.00 0.00 95 991.8
20260905014503 41 0 0.0 0.0 0.00 0.00 0.00 95 991.8
20260905013603 40 0 0.0 0.0 0.00 0.00 0.00 95 991.8
20260905012703 40 0 0.0 0.0 0.00 0.00 0.00 95 991.7
20260905011803 41 0 0.0 0.0 0.00 0.00 0.00 95 991.8
20260905010903 41 0 0.0 0.0 0.00 0.00 0.00 95 991.8
20260905010003 41 321 0.0 1.0 0.00 0.01 0.00 95 991.8
20260905005403 42 321 1.0 3.0 0.00 0.01 0.00 95 991.8
20260905004503 42 321 2.0 4.0 0.00 0.01 0.00 95 991.8
20260905003603 42 321 1.0 3.0 0.00 0.01 0.00 95 991.8
20260905002703 42 321 1.0 3.0 0.00 0.01 0.00 95 991.9
20260905001824 42 321 1.0 3.0 0.00 0.01 0.00 95 992.0
20260905000924 42 321 0.0 2.0 0.00 0.02 0.00 95 992.0
20260905000003 42 0 0.0 0.0 0.00 0.03 0.00 95 992.1
20260904235403 42 321 0.0 1.0 0.00 0.03 0.00 95 992.2
20260904234503 43 0 0.0 0.0 0.00 0.04 0.00 95 992.2
20260904233603 43 321 1.0 3.0 0.00 0.04 0.00 95 992.3
20260904232703 44 321 3.0 4.0 0.00 0.05 0.00 96 992.3
20260904231803 44 321 3.0 4.0 0.00 0.05 0.00 96 992.3
20260904230903 43 321 3.0 4.0 0.00 0.05 0.00 96 992.4
20260904230003 42 321 2.0 4.0 0.00 0.05 0.00 95 992.4
20260904225424 42 321 1.0 3.0 0.00 0.05 0.00 95 992.4
20260904224503 42 321 1.0 2.0 0.00 0.05 0.00 95 992.6
20260904223603 42 321 2.0 3.0 0.00 0.05 0.00 95 992.6
20260904222703 42 321 0.0 3.0 0.00 0.05 0.00 94 992.7
20260904221803 42 0 0.0 0.0 0.00 0.05 0.00 94 992.7
20260904220903 42 0 0.0 0.0 0.00 0.05 0.00 94 992.8
20260904220003 43 0 0.0 0.0 0.00 0.05 0.00 94 992.8
20260904215403 43 0 0.0 0.0 0.00 0.05 0.00 94 992.9
20260904214524 44 0 0.0 0.0 0.00 0.05 0.00 95 992.8
20260904213603 44 0 0.0 0.0 0.00 0.05 0.00 94 992.9
20260904212703 44 321 0.0 2.0 0.00 0.05 0.00 95 992.9
20260904211803 44 321 1.0 2.0 0.00 0.05 0.00 94 993.0
20260904210903 44 0 0.0 0.0 0.00 0.05 0.00 94 993.1
20260904210004 45 321 0.0 1.0 0.00 0.05 0.00 94 993.1
20260904205403 46 321 1.0 2.0 0.00 0.05 0.05 94 993.2
20260904204503 46 321 3.0 4.0 0.00 0.05 0.05 95 993.2
20260904203603 47 321 3.0 4.0 0.00 0.05 0.05 94 993.2
20260904202703 47 321 3.0 5.0 0.00 0.05 0.05 95 993.3
20260904201803 47 321 4.0 5.0 0.00 0.05 0.05 95 993.2
20260904200903 47 321 4.0 5.0 0.00 0.05 0.05 95 993.4
20260904200003 47 316 4.0 5.0 0.00 0.05 0.05 94 993.4
20260904195403 47 315 4.0 5.0 0.00 0.06 0.05 95 993.4
20260904194503 46 316 3.0 5.0 0.00 0.06 0.05 95 993.5
20260904193603 45 311 4.0 5.0 0.00 0.06 0.05 94 993.5
20260904192703 44 302 2.0 4.0 0.00 0.06 0.05 93 993.4
20260904191803 45 297 2.0 4.0 0.00 0.06 0.05 93 993.4
20260904190903 45 221 2.0 4.0 0.00 0.06 0.05 93 993.5
20260904190003 45 218 2.0 3.0 0.00 0.06 0.05 93 993.6
20260904185403 44 218 1.0 3.0 0.00 0.06 0.05 93 993.7
20260904184503 44 217 1.0 2.0 0.00 0.07 0.05 92 993.8
20260904183603 44 217 1.0 2.0 0.00 0.07 0.05 91 993.8
20260904182724 44 217 0.0 2.0 0.00 0.07 0.05 91 993.8
20260904181803 45 217 1.0 2.0 0.00 0.07 0.05 91 993.9
20260904180924 46 218 1.0 2.0 0.00 0.07 0.05 90 993.9
20260904180003 46 217 0.0 1.0 0.00 0.08 0.05 90 993.9
20260904175403 47 217 0.0 1.0 0.00 0.09 0.05 90 993.9
20260904174503 48 217 1.0 1.0 0.00 0.10 0.05 89 993.9
20260904173624 49 217 1.0 2.0 0.00 0.11 0.05 90 993.9
20260904172703 50 217 1.0 2.0 0.00 0.11 0.05 89 994.0
20260904171803 51 218 0.0 2.0 0.00 0.11 0.05 88 994.0
20260904170903 52 217 1.0 2.0 0.00 0.11 0.05 88 994.1
20260904170003 52 217 0.0 2.0 0.00 0.11 0.05 88 994.2
20260904165403 53 0 0.0 0.0 0.00 0.11 0.05 88 994.2
20260904164503 54 0 0.0 0.0 0.00 0.11 0.05 87 994.2
20260904163603 54 0 0.0 0.0 0.00 0.11 0.05 86 994.2
20260904162703 55 0 0.0 0.0 0.00 0.11 0.05 85 994.2
20260904161803 55 0 0.0 0.0 0.00 0.11 0.05 84 994.3
20260904160904 54 218 0.0 2.0 0.00 0.11 0.05 84 994.3
20260904160004 55 217 1.0 2.0 0.00 0.11 0.05 84 994.3
20260904155404 54 218 1.0 1.0 0.00 0.11 0.05 85 994.3
20260904154525 54 217 1.0 3.0 0.00 0.11 0.05 85 994.4
20260904153604 54 217 1.0 2.0 0.00 0.11 0.05 85 994.5
20260904152704 55 217 1.0 3.0 0.00 0.11 0.05 85 994.5
20260904151804 55 222 1.0 5.0 0.00 0.11 0.05 84 994.6
20260904150904 55 228 2.0 5.0 0.00 0.11 0.05 84 994.6
20260904150004 56 229 1.0 3.0 0.00 0.11 0.05 83 994.7
20260904145404 56 202 2.0 5.0 0.00 0.11 0.05 82 994.7
20260904144504 57 240 2.0 8.0 0.00 0.11 0.05 80 994.7
20260904143604 58 165 3.0 7.0 0.00 0.11 0.05 79 994.8
20260904142725 58 172 1.0 5.0 0.00 0.11 0.05 80 994.7
20260904141804 58 172 1.0 4.0 0.00 0.11 0.05 79 994.8
20260904140925 58 170 2.0 6.0 0.00 0.11 0.05 79 994.8
20260904140004 58 167 3.0 7.0 0.00 0.11 0.05 79 995.0
20260904135404 58 162 4.0 8.0 0.00 0.11 0.05 79 995.0
20260904134504 58 164 4.0 8.0 0.00 0.11 0.05 79 995.0
20260904133604 58 161 4.0 8.0 0.00 0.11 0.05 79 995.0
20260904132704 58 151 3.0 6.0 0.00 0.11 0.05 78 995.0
20260904131825 58 162 4.0 8.0 0.00 0.11 0.05 78 995.1
20260904130904 58 168 2.0 6.0 0.00 0.11 0.05 79 995.1
20260904130004 58 164 4.0 7.0 0.00 0.11 0.05 78 995.1
20260904125404 58 169 4.0 6.0 0.00 0.11 0.05 79 995.1
20260904124504 58 173 3.0 7.0 0.00 0.11 0.05 78 995.1
20260904123604 58 160 4.0 9.0 0.00 0.11 0.05 80 995.2
20260904122725 58 159 4.0 10.0 0.00 0.11 0.05 79 995.1
20260904121825 57 169 4.0 9.0 0.00 0.11 0.05 80 995.4
20260904120904 57 168 3.0 6.0 0.00 0.11 0.05 80 995.5
20260904120004 57 169 4.0 8.0 0.00 0.11 0.05 80 995.5
20260904115404 57 179 3.0 8.0 0.00 0.11 0.05 80 995.5
20260904114504 57 181 3.0 6.0 0.00 0.11 0.05 81 995.6
20260904113604 57 167 2.0 5.0 0.00 0.11 0.05 80 995.8
20260904112704 57 199 2.0 5.0 0.00 0.11 0.05 83 995.8
20260904111804 57 190 2.0 5.0 0.00 0.11 0.05 83 995.8
20260904110904 56 164 3.0 7.0 0.00 0.11 0.05 84 995.8
20260904110025 56 167 3.0 8.0 0.00 0.11 0.05 85 995.9
20260904105404 55 168 3.0 8.0 0.00 0.11 0.05 85 995.9
20260904104525 55 163 3.0 7.0 0.00 0.11 0.05 85 996.0
20260904103605 55 169 4.0 7.0 0.00 0.11 0.05 85 996.0
20260904102704 55 165 3.0 5.0 0.00 0.11 0.05 86 996.1
20260904101825 55 169 3.0 6.0 0.00 0.11 0.05 85 996.3
20260904100904 55 171 2.0 5.0 0.00 0.11 0.05 85 996.3
20260904100004 55 159 2.0 6.0 0.00 0.11 0.05 85 996.3
20260904095404 55 164 4.0 7.0 0.00 0.11 0.05 85 996.3
20260904094504 55 158 3.0 6.0 0.00 0.11 0.05 87 996.4